When you browse on this site, cookies collect data to enhance your experience and personalize the content and advertising you see.
Visit our Privacy Policy to learn more. By continuing to use the site, you agree to this use of cookies and data.
  • In Romania
  • List of Countries
  • For 7 days
  • Water Temperature
  • Weather Map
  • Weather Widgets
  • user-avatar
    Login

    Hourly Weather Seneckoe

    Today, 16 September, Monday

    Time Temperature Precipitation Wind Pressure Humidity
    00:00 +9°C° 0.1 mm 5 mps 739 mmHg 93%
    01:00 +10°C° 0.1 mm 4 mps 739 mmHg 93%
    02:00 +8°C° 0 mm 4 mps 739 mmHg 96%
    03:00 +8°C° 0.1 mm 4 mps 739 mmHg 95%
    04:00 +8°C° 0.1 mm 4 mps 738 mmHg 95%
    05:00 +8°C° 0.1 mm 4 mps 738 mmHg 94%
    06:00 +8°C° 0.1 mm 4 mps 738 mmHg 93%
    07:00 +8°C° 0.1 mm 5 mps 738 mmHg 92%
    08:00 +9°C° 0.1 mm 5 mps 738 mmHg 90%
    09:00 +9°C° 0.2 mm 5 mps 738 mmHg 89%
    10:00 +9°C° 0.2 mm 5 mps 738 mmHg 89%
    11:00 +10°C° 0.2 mm 5 mps 738 mmHg 88%
    12:00 +10°C° 0.4 mm 5 mps 738 mmHg 84%
    13:00 +11°C° 0.4 mm 6 mps 738 mmHg 81%
    14:00 +13°C° 0.4 mm 6 mps 737 mmHg 77%
    15:00 +11°C° 0.4 mm 6 mps 738 mmHg 80%
    16:00 +12°C° 0.4 mm 5 mps 738 mmHg 84%
    17:00 +10°C° 0.4 mm 5 mps 738 mmHg 87%
    18:00 +9°C° 0.1 mm 5 mps 738 mmHg 88%
    19:00 +9°C° 0.1 mm 5 mps 738 mmHg 90%
    20:00 +8°C° 0.1 mm 5 mps 738 mmHg 91%
    21:00 +8°C° 0.1 mm 5 mps 738 mmHg 91%
    22:00 +8°C° 0.1 mm 5 mps 738 mmHg 91%
    23:00 +8°C° 0.1 mm 5 mps 738 mmHg 91%

    Tomorrow, 17 September, Tuesday

    Time Temperature Precipitation Wind Pressure Humidity
    00:00 +8°C° 0 mm 5 mps 738 mmHg 91%
    01:00 +8°C° 0 mm 5 mps 738 mmHg 90%
    02:00 +7°C° 0 mm 5 mps 738 mmHg 90%
    03:00 +7°C° 0 mm 4 mps 738 mmHg 90%
    04:00 +7°C° 0 mm 4 mps 738 mmHg 90%
    05:00 +7°C° 0 mm 4 mps 738 mmHg 90%
    06:00 +7°C° 0.1 mm 4 mps 738 mmHg 91%
    07:00 +7°C° 0.1 mm 4 mps 738 mmHg 91%
    08:00 +7°C° 0.1 mm 4 mps 738 mmHg 91%
    09:00 +7°C° 0.2 mm 4 mps 738 mmHg 90%
    10:00 +9°C° 0.2 mm 3 mps 739 mmHg 88%
    11:00 +9°C° 0.2 mm 3 mps 739 mmHg 87%
    12:00 +10°C° 0.4 mm 3 mps 739 mmHg 86%
    13:00 +10°C° 0.4 mm 3 mps 739 mmHg 84%
    14:00 +11°C° 0.4 mm 3 mps 739 mmHg 83%
    15:00 +10°C° 0.5 mm 3 mps 739 mmHg 85%
    16:00 +10°C° 0.5 mm 2 mps 739 mmHg 88%
    17:00 +10°C° 0.5 mm 2 mps 738 mmHg 90%
    18:00 +9°C° 0.1 mm 2 mps 739 mmHg 92%
    19:00 +9°C° 0.1 mm 1 mps 739 mmHg 94%
    20:00 +7°C° 0.1 mm 1 mps 739 mmHg 97%
    21:00 +7°C° 0 mm 1 mps 739 mmHg 97%
    22:00 +6°C° 0 mm 1 mps 739 mmHg 97%
    23:00 +5°C° 0 mm 0 mps 738 mmHg 97%

    Day after tomorrow, 18 September, Wednesday

    Time Temperature Precipitation Wind Pressure Humidity
    00:00 +5°C° 0 mm 0 mps 738 mmHg 97%
    01:00 +4°C° 0 mm 0 mps 738 mmHg 97%
    02:00 +4°C° 0 mm 0 mps 738 mmHg 98%
    03:00 +4°C° 0 mm 0 mps 738 mmHg 98%
    04:00 +3°C° 0 mm 0 mps 738 mmHg 97%
    05:00 +3°C° 0 mm 0 mps 738 mmHg 97%
    06:00 +4°C° 0 mm 0 mps 738 mmHg 96%
    07:00 +7°C° 0 mm 1 mps 739 mmHg 94%
    08:00 +8°C° 0 mm 1 mps 739 mmHg 92%
    09:00 +9°C° 0 mm 1 mps 739 mmHg 87%
    10:00 +9°C° 0 mm 2 mps 740 mmHg 83%
    11:00 +10°C° 0 mm 2 mps 740 mmHg 78%
    12:00 +12°C° 0 mm 2 mps 740 mmHg 72%
    13:00 +12°C° 0 mm 2 mps 740 mmHg 67%
    14:00 +12°C° 0 mm 3 mps 741 mmHg 61%
    15:00 +11°C° 0.2 mm 3 mps 741 mmHg 68%
    16:00 +10°C° 0.2 mm 2 mps 741 mmHg 74%
    17:00 +10°C° 0.2 mm 2 mps 742 mmHg 81%
    18:00 +8°C° 0 mm 2 mps 742 mmHg 86%
    19:00 +7°C° 0 mm 2 mps 743 mmHg 91%
    20:00 +6°C° 0 mm 2 mps 743 mmHg 95%
    21:00 +5°C° 0 mm 2 mps 744 mmHg 96%
    22:00 +5°C° 0 mm 2 mps 744 mmHg 97%
    23:00 +4°C° 0 mm 2 mps 745 mmHg 97%

    19 September, Thursday

    Time Temperature Precipitation Wind Pressure Humidity
    00:00 +4°C° 0 mm 2 mps 745 mmHg 97%
    01:00 +3°C° 0 mm 2 mps 746 mmHg 98%
    02:00 +4°C° 0 mm 1 mps 746 mmHg 98%
    03:00 +4°C° 0 mm 1 mps 746 mmHg 98%
    04:00 +3°C° 0 mm 1 mps 747 mmHg 98%
    05:00 +3°C° 0 mm 1 mps 747 mmHg 98%
    06:00 +4°C° 0 mm 1 mps 748 mmHg 95%
    07:00 +4°C° 0 mm 2 mps 748 mmHg 93%
    08:00 +5°C° 0 mm 2 mps 748 mmHg 90%
    09:00 +6°C° 0.1 mm 2 mps 749 mmHg 83%
    10:00 +7°C° 0.1 mm 2 mps 749 mmHg 75%
    11:00 +9°C° 0.1 mm 2 mps 749 mmHg 68%
    12:00 +9°C° 0.1 mm 2 mps 750 mmHg 65%
    13:00 +9°C° 0.1 mm 3 mps 750 mmHg 61%
    14:00 +10°C° 0.1 mm 3 mps 750 mmHg 58%
    15:00 +9°C° 0 mm 3 mps 750 mmHg 62%
    16:00 +8°C° 0 mm 2 mps 750 mmHg 66%
    17:00 +8°C° 0 mm 2 mps 750 mmHg 70%
    18:00 +7°C° 0 mm 1 mps 751 mmHg 76%
    19:00 +6°C° 0 mm 1 mps 751 mmHg 83%
    20:00 +4°C° 0 mm 1 mps 752 mmHg 89%
    21:00 +4°C° 0 mm 1 mps 752 mmHg 91%
    22:00 +3°C° 0 mm 1 mps 752 mmHg 92%
    23:00 +3°C° 0 mm 1 mps 753 mmHg 93%

    20 September, Friday

    Time Temperature Precipitation Wind Pressure Humidity
    00:00 +3°C° 0 mm 1 mps 753 mmHg 94%
    01:00 +2°C° 0 mm 1 mps 753 mmHg 95%
    02:00 +2°C° 0 mm 1 mps 753 mmHg 96%
    03:00 +2°C° 0 mm 1 mps 753 mmHg 96%
    04:00 +1°C° 0 mm 1 mps 753 mmHg 96%
    05:00 +1°C° 0 mm 1 mps 753 mmHg 96%
    06:00 +2°C° 0 mm 1 mps 753 mmHg 89%
    07:00 +2°C° 0 mm 2 mps 754 mmHg 82%
    08:00 +4°C° 0 mm 2 mps 754 mmHg 76%
    09:00 +5°C° 0 mm 2 mps 754 mmHg 71%
    10:00 +6°C° 0 mm 2 mps 754 mmHg 67%
    11:00 +7°C° 0 mm 3 mps 754 mmHg 63%
    12:00 +8°C° 0.2 mm 3 mps 754 mmHg 62%
    13:00 +8°C° 0.2 mm 3 mps 754 mmHg 61%
    14:00 +8°C° 0.2 mm 3 mps 754 mmHg 60%
    15:00 +8°C° 0 mm 3 mps 754 mmHg 61%
    16:00 +7°C° 0 mm 2 mps 754 mmHg 62%
    17:00 +8°C° 0 mm 1 mps 754 mmHg 63%
    18:00 +6°C° 0 mm 1 mps 754 mmHg 67%
    19:00 +5°C° 0 mm 1 mps 755 mmHg 71%
    20:00 +4°C° 0 mm 1 mps 755 mmHg 75%
    21:00 +3°C° 0 mm 1 mps 755 mmHg 78%
    22:00 +3°C° 0 mm 1 mps 755 mmHg 81%
    23:00 +3°C° 0 mm 1 mps 755 mmHg 83%

    21 September, Saturday

    Time Temperature Precipitation Wind Pressure Humidity
    00:00 +2°C° 0 mm 1 mps 755 mmHg 86%
    01:00 +2°C° 0 mm 1 mps 755 mmHg 89%
    02:00 +1°C° 0 mm 1 mps 756 mmHg 91%
    03:00 +1°C° 0 mm 1 mps 756 mmHg 92%
    04:00 +1°C° 0 mm 1 mps 756 mmHg 92%
    05:00 0°C° 0 mm 1 mps 756 mmHg 93%
    06:00 +2°C° 0 mm 1 mps 756 mmHg 85%
    07:00 +4°C° 0 mm 1 mps 756 mmHg 77%
    08:00 +5°C° 0 mm 1 mps 757 mmHg 69%
    09:00 +7°C° 0 mm 1 mps 757 mmHg 63%
    10:00 +9°C° 0 mm 1 mps 757 mmHg 57%
    11:00 +11°C° 0 mm 1 mps 757 mmHg 51%
    12:00 +11°C° 0 mm 1 mps 757 mmHg 49%
    13:00 +10°C° 0 mm 2 mps 756 mmHg 48%
    14:00 +10°C° 0 mm 2 mps 756 mmHg 47%
    15:00 +9°C° 0 mm 2 mps 756 mmHg 53%
    16:00 +9°C° 0 mm 1 mps 756 mmHg 59%
    17:00 +9°C° 0 mm 1 mps 756 mmHg 65%
    18:00 +8°C° 0 mm 1 mps 756 mmHg 68%
    19:00 +7°C° 0 mm 1 mps 756 mmHg 70%
    20:00 +5°C° 0 mm 2 mps 757 mmHg 73%
    21:00 +5°C° 0 mm 2 mps 756 mmHg 76%
    22:00 +5°C° 0 mm 2 mps 756 mmHg 78%
    23:00 +5°C° 0 mm 2 mps 756 mmHg 81%
    Show more